Location: Kitchener-Waterloo
(43.4500°N, 80.5000°W)
Time: 00:56:23
(UTC-05:00)

ISS - All Passes

Search period start: 14 February 2016 00:00
Search period end: 24 February 2016 00:00
Orbit: 398 x 408 km, 51.6° (Epoch: 13 February)

Date Brightness Start Highest point End Pass type
(mag) Time Alt. Az. Time Alt. Az. Time Alt. Az.
14 Feb - 13:33:00 10° S 13:35:20 18° SE 13:37:39 10° E daylight
14 Feb - 15:08:16 10° WSW 15:11:29 60° NNW 15:14:43 10° NE daylight
14 Feb - 16:45:50 10° WNW 16:48:24 21° N 16:50:58 10° NE daylight
14 Feb - 18:23:02 10° NW 18:25:38 21° N 18:28:13 10° ENE visible
14 Feb - 19:59:17 10° NW 20:02:31 65° NNE 20:05:44 10° ESE visible
14 Feb - 21:36:28 10° W 21:38:38 17° SW 21:40:47 10° S night (unlit)
15 Feb - 14:15:26 10° SW 14:18:41 76° SE 14:21:56 10° ENE daylight
15 Feb - 15:52:36 10° WNW 15:55:23 25° NNW 15:58:11 10° NE daylight
15 Feb - 17:30:09 10° NW 17:32:35 19° N 17:35:01 10° NE daylight
15 Feb - 19:06:33 10° NW 19:09:38 40° NNE 19:12:43 10° E visible
15 Feb - 20:43:07 10° WNW 20:46:01 30° SW 20:48:54 10° SSE visible
16 Feb - 13:22:51 10° SSW 13:25:55 40° SE 13:29:00 10° ENE daylight
16 Feb - 14:59:23 10° W 15:02:24 34° NNW 15:05:25 10° NE daylight
16 Feb - 16:37:06 10° NW 16:39:30 19° N 16:41:55 10° NE daylight
16 Feb - 18:13:47 10° NW 18:16:40 28° NNE 18:19:32 10° E daylight
16 Feb - 19:50:05 10° WNW 19:53:17 58° SW 19:56:28 10° SE visible
17 Feb - 12:30:39 10° S 12:33:13 22° SE 12:35:47 10° E daylight
17 Feb - 14:06:14 10° WSW 14:09:26 52° NNW 14:12:38 10° NE daylight
17 Feb - 15:43:52 10° WNW 15:46:24 20° N 15:48:55 10° NE daylight
17 Feb - 17:20:57 10° NW 17:23:37 22° NNE 17:26:15 10° ENE daylight
17 Feb - 18:57:11 10° NW 19:00:26 77° NNE 19:03:41 10° ESE visible
17 Feb - 20:34:42 10° W 20:36:29 14° SW 20:38:15 10° SSW visible
18 Feb - 11:39:18 10° SSE 11:40:33 12° SE 11:41:48 10° ESE daylight
18 Feb - 13:13:15 10° WSW 13:16:31 90° NW 13:19:47 10° ENE daylight
18 Feb - 14:50:34 10° WNW 14:53:17 24° NNW 14:56:00 10° NE daylight
18 Feb - 16:28:02 10° NW 16:30:29 20° N 16:32:58 10° NE daylight
18 Feb - 18:04:21 10° NW 18:07:30 45° NNE 18:10:38 10° E daylight
18 Feb - 19:41:02 10° WNW 19:43:48 25° SW 19:46:31 10° SSE visible
19 Feb - 12:20:30 10° SW 12:23:39 48° SE 12:26:49 10° ENE daylight
19 Feb - 13:57:14 10° W 14:00:12 31° NNW 14:03:09 10° NE daylight
19 Feb - 15:34:55 10° NW 15:37:19 19° N 15:39:44 10° NE daylight
19 Feb - 17:11:30 10° NW 17:14:27 31° NNE 17:17:23 10° E daylight
19 Feb - 18:47:51 10° WNW 18:50:59 48° SW 18:54:07 10° SE visible
20 Feb - 11:28:04 10° SSW 11:30:50 26° SE 11:33:36 10° ENE daylight
20 Feb - 13:03:58 10° W 13:07:07 45° NNW 13:10:17 10° NE daylight
20 Feb - 14:41:38 10° NW 14:44:08 20° N 14:46:36 10° NE daylight
20 Feb - 16:18:36 10° NW 16:21:19 24° NNE 16:24:02 10° ENE daylight
20 Feb - 17:54:50 10° WNW 17:58:05 90° NNE 18:01:19 10° ESE daylight
20 Feb - 19:32:50 10° WSW 19:34:03 12° SW 19:35:15 10° SSW visible
21 Feb - 10:36:16 10° SSE 10:38:04 14° SE 10:39:51 10° E daylight
21 Feb - 12:10:50 10° WSW 12:14:06 77° NNW 12:17:22 10° NE daylight
21 Feb - 13:48:15 10° WNW 13:50:55 23° NNW 13:53:35 10° NE daylight
21 Feb - 15:25:36 10° NW 15:28:08 20° N 15:30:38 10° ENE daylight
21 Feb - 17:01:53 10° NW 17:05:04 52° NNE 17:08:15 10° ESE daylight
21 Feb - 18:38:44 10° W 18:41:17 22° SW 18:43:50 10° S visible
22 Feb - 11:17:55 10° SW 11:21:07 58° SE 11:24:20 10° ENE daylight
22 Feb - 12:54:49 10° W 12:57:43 28° NNW 13:00:37 10° NE daylight
22 Feb - 14:32:27 10° NW 14:34:52 19° N 14:37:17 10° NE daylight
22 Feb - 16:08:57 10° NW 16:11:58 34° NNE 16:14:57 10° E daylight
22 Feb - 17:45:21 10° WNW 17:48:26 40° SW 17:51:29 10° SSE daylight
23 Feb - 10:25:17 10° SSW 10:28:11 30° SE 10:31:06 10° ENE daylight
23 Feb - 12:01:26 10° W 12:04:32 40° NNW 12:07:39 10° NE daylight
23 Feb - 13:39:07 10° NW 13:41:34 19° N 13:44:01 10° NE daylight
23 Feb - 15:15:59 10° NW 15:18:45 25° NNE 15:21:32 10° ENE daylight
23 Feb - 16:52:12 10° WNW 16:55:27 77° SW 16:58:42 10° SE daylight
